Vertical_Velocity
-1 -1 -2 -1 -1 -2 -2 -2 -2 -2 -1 -1 -1 -0 -0 -0 -0 -0 -0 0 0 1 1 1 1 1 0 0 -0 -1 -1 -1 -1 -1 -2 -2 -1 -1 -1 -1 -1 -1 -2 -2 -2 -1 -1 0 4 8 10 9 6 3 0 -3 -6 -9 -12 -11 -9 -6 -2 2 4 5 5 4 4 3 1 -0 -1 -1 -1 -2 -2 -2 -0 1 1 0 -1 -2 -2 -0 2 3 3 2 -0 -1 -1 -1 -0 0 0 0 0 -0 -0 -0 0
-1 -1 -2 -2 -2 -2 -2 -2 -2 -2 -1 -1 -1 -0 -0 0 0 0 0 0 0 1 1 1 1 1 1 1 1 0 -0 -1 -1 -2 -2 -2 -2 -2 -2 -1 -1 -1 -2 -2 -3 -3 -4 -2 2 7 10 8 6 5 3 1 -1 -4 -8 -10 -10 -9 -7 -4 -0 3 5 5 5 4 2 0 -0 -0 0 -0 -1 -2 -2 -0 1 1 0 -1 -2 -1 1 2 3 1 -0 -1 -1 -1 0 1 1 1 1 0 0 -0 -0
-1 -1 -1 -2 -2 -2 -2 -2 -2 -2 -1 -1 -1 -1 -1 -1 -1 -0 -0 -0 -0 0 0 0 1 1 1 1 1 1 1 0 -1 -2 -2 -2 -2 -2 -3 -3 -2 -2 -2 -3 -4 -4 -5 -2 1 4 7 6 5 5 5 4 3 1 -3 -6 -7 -8 -9 -9 -6 -3 1 3 4 5 4 2 1 0 0 1 0 -1 -3 -2 -0 1 1 0 -1 -2 -1 1 2 1 0 -1 -1 -1 0 1 2 2 1 1 0 0 -0
-1 -1 -1 -1 -1 -1 -2 -2 -2 -2 -2 -2 -2 -2 -2 -2 -2 -1 -1 -1 -1 -1 -0 0 0 1 1 1 2 2 2 2 1 0 -0 -1 -1 -1 -2 -2 -2 -2 -2 -3 -4 -5 -6 -3 -0 2 3 2 3 3 4 5 6 5 3 0 -2 -5 -7 -9 -9 -8 -5 -1 2 4 4 4 3 1 0 1 1 0 -2 -3 -2 -0 1 1 0 -1 -1 -0 0 1 0 -1 -1 -1 -0 1 2 2 2 1 1 0 -0
-0 -0 -0 -1 -1 -1 -1 -2 -2 -2 -3 -2 -2 -2 -2 -2 -2 -2 -2 -1 -1 -1 -1 -0 -0 0 1 1 1 2 2 2 2 2 2 1 1 0 0 0 0 0 0 -1 -2 -3 -5 -3 -2 -1 -2 -2 -0 1 2 4 5 6 5 5 3 0 -4 -6 -8 -10 -10 -7 -3 1 3 4 4 3 1 0 0 0 -0 -2 -3 -2 -0 1 1 1 -1 -1 -1 -0 -0 -0 -1 -1 -0 1 1 2 2 2 1 1 0
-1 -1 -1 -1 -1 -1 -1 -2 -2 -2 -2 -2 -2 -3 -3 -3 -3 -3 -2 -2 -2 -1 -1 -1 -0 -0 0 1 1 1 2 2 1 2 2 2 2 1 1 1 1 2 2 1 1 0 -1 1 1 -0 -4 -4 -4 -2 -1 2 3 4 5 6 6 4 1 -1 -4 -7 -11 -11 -8 -4 0 2 3 4 4 1 -0 -1 0 -0 -2 -3 -2 -0 1 2 1 -1 -1 -1 -1 -0 -0 -0 -0 1 1 2 2 2 2 1 0
-1 -1 -1 -1 -1 -1 -1 -2 -2 -2 -2 -2 -2 -2 -2 -2 -2 -2 -2 -2 -2 -2 -2 -1 -1 -0 -0 0 1 1 1 1 1 1 2 2 2 2 2 2 2 2 2 2 2 2 1 4 4 4 1 -1 -3 -4 -5 -2 0 2 4 6 6 6 5 3 0 -3 -6 -10 -11 -9 -5 -2 1 3 4 3 1 -1 -1 1 0 -1 -3 -2 -0 1 2 0 -1 -2 -1 -1 -0 -0 -0 0 1 2 3 3 2 2 1
-1 -1 -1 -2 -2 -2 -2 -2 -2 -2 -2 -1 -1 -1 -1 -1 -1 -1 -2 -2 -2 -2 -2 -2 -1 -1 -1 -0 -0 0 1 1 1 1 1 1 1 1 2 2 2 2 2 2 2 2 2 4 5 6 5 4 2 -0 -3 -3 -3 -1 2 4 5 6 6 5 3 0 -2 -5 -9 -11 -11 -7 -3 1 3 3 2 1 -1 0 1 1 -0 -1 -1 0 2 1 0 -1 -2 -1 -1 -0 0 0 1 2 3 3 2 2 1
-1 -1 -1 -1 -1 -2 -2 -2 -2 -2 -2 -2 -1 -1 -1 -1 -1 -1 -1 -2 -2 -2 -2 -2 -2 -2 -2 -2 -1 -1 -1 -1 -0 -0 -0 -0 0 0 1 1 1 2 2 2 2 2 1 3 4 6 5 7 6 4 3 0 -1 -2 -1 1 3 4 6 6 4 2 0 -1 -4 -9 -13 -11 -8 -4 -0 2 3 3 1 1 2 2 3 1 -1 -1 -0 1 1 0 -1 -1 -1 -0 0 0 1 1 2 2 2 2 1
-1 -1 -1 -1 -1 -1 -2 -2 -2 -2 -2 -2 -2 -2 -2 -2 -2 -2 -2 -2 -2 -2 -3 -3 -3 -3 -3 -3 -3 -3 -3 -3 -3 -2 -2 -2 -2 -2 -2 -1 -1 -1 -0 0 1 0 0 1 3 4 4 7 6 6 7 5 3 2 0 0 1 1 3 4 5 4 3 1 -1 -5 -9 -12 -11 -8 -4 -1 1 3 3 3 2 2 3 3 1 -1 -3 -1 -0 0 -0 -1 -1 -1 0 0 1 1 1 2 2 2 1
-1 -1 -2 -2 -2 -2 -2 -2 -2 -2 -2 -2 -3 -3 -3 -3 -3 -3 -2 -2 -2 -3 -3 -3 -3 -3 -3 -3 -4 -4 -4 -5 -5 -5 -5 -5 -5 -5 -5 -5 -4 -4 -4 -3 -3 -3 -3 -2 -1 1 2 4 5 5 7 6 6 6 5 4 2 0 -1 1 2 4 5 3 1 -2 -5 -8 -10 -11 -9 -5 -1 1 3 3 3 3 3 3 2 0 -3 -3 -2 -0 0 -0 -0 -1 -0 -0 0 1 1 2 2 2 1
-2 -2 -2 -2 -2 -2 -2 -2 -2 -2 -2 -2 -3 -3 -3 -3 -3 -3 -3 -3 -3 -3 -3 -3 -3 -3 -3 -4 -4 -5 -5 -6 -6 -7 -7 -8 -8 -7 -7 -7 -6 -6 -6 -6 -6 -6 -6 -5 -5 -4 -3 -1 0 1 4 4 6 7 7 7 5 2 -1 -1 -0 1 4 4 3 1 -2 -4 -6 -9 -11 -9 -5 -2 1 2 3 3 2 2 2 1 -1 -3 -3 -2 -0 0 0 -0 -0 -0 0 1 1 2 2 2 1
-3 -3 -3 -3 -3 -3 -3 -3 -2 -2 -2 -2 -2 -2 -3 -3 -3 -3 -3 -3 -3 -3 -4 -4 -4 -4 -4 -4 -4 -5 -6 -7 -7 -8 -9 -9 -9 -9 -9 -9 -8 -7 -7 -7 -6 -7 -7 -6 -6 -6 -5 -5 -4 -3 -2 0 3 5 6 8 6 4 2 0 -0 -0 0 2 4 3 1 -1 -3 -6 -9 -11 -9 -6 -3 -0 1 2 2 2 2 2 1 -1 -3 -3 -1 0 1 1 0 0 0 1 1 2 2 2 1
-4 -3 -3 -4 -4 -4 -3 -3 -3 -3 -3 -3 -3 -3 -3 -3 -3 -3 -3 -4 -4 -4 -4 -5 -5 -5 -4 -4 -4 -4 -5 -6 -7 -7 -8 -9 -9 -9 -9 -9 -9 -8 -7 -7 -7 -7 -7 -7 -7 -6 -6 -6 -5 -5 -5 -3 -1 1 4 5 4 3 4 3 3 1 -0 -0 1 3 3 1 -0 -3 -5 -8 -10 -10 -7 -4 -1 0 2 3 3 3 2 1 -1 -2 -2 -1 0 1 1 1 1 1 1 1 1 1 1
-3 -3 -3 -3 -4 -4 -4 -4 -4 -4 -4 -3 -3 -3 -3 -3 -3 -3 -3 -4 -4 -4 -5 -5 -5 -5 -5 -4 -3 -2 -2 -2 -3 -4 -5 -6 -7 -7 -8 -8 -8 -8 -7 -7 -7 -7 -7 -7 -8 -7 -6 -7 -6 -6 -6 -4 -3 -2 0 1 1 1 2 4 4 4 2 1 -0 0 1 3 2 1 -2 -5 -8 -11 -11 -8 -4 -1 1 2 4 4 4 3 2 1 -1 -1 -1 0 1 1 1 1 0 1 1 1 1
-2 -3 -3 -3 -3 -3 -3 -4 -4 -4 -4 -4 -4 -4 -4 -4 -4 -4 -4 -4 -4 -4 -4 -4 -4 -4 -3 -2 -1 -0 1 1 1 1 -0 -2 -3 -4 -5 -6 -6 -7 -7 -7 -7 -7 -6 -7 -7 -8 -8 -8 -8 -8 -7 -5 -4 -4 -2 -2 -2 -2 -1 1 3 4 4 3 1 -0 -1 1 2 3 1 -2 -5 -8 -11 -11 -8 -4 -0 1 3 5 6 5 4 3 1 -1 -2 -1 0 1 1 1 0 0 1 1 1
-2 -2 -2 -2 -2 -3 -3 -3 -3 -4 -4 -4 -4 -4 -4 -4 -4 -4 -4 -3 -3 -2 -2 -2 -1 -1 -1 -1 -0 0 1 2 3 3 3 1 0 -1 -2 -3 -4 -5 -6 -7 -7 -7 -7 -7 -7 -7 -8 -8 -9 -9 -8 -6 -6 -6 -6 -4 -4 -4 -3 -2 -0 1 3 3 3 1 -1 -1 -0 1 2 1 -1 -4 -8 -11 -11 -8 -3 -1 2 3 5 6 5 4 2 -0 -2 -2 -1 0 1 1 1 0 0 1 1
-1 -1 -2 -2 -2 -2 -2 -3 -3 -3 -3 -3 -4 -4 -4 -4 -4 -4 -3 -3 -2 -1 -1 -0 -0 -0 -0 -1 -1 -1 -1 -0 0 0 1 1 0 -1 -1 -2 -3 -3 -4 -6 -7 -7 -7 -7 -7 -7 -8 -8 -9 -10 -10 -7 -8 -9 -9 -7 -7 -7 -5 -4 -3 -2 -1 1 2 2 1 0 -1 -1 1 2 1 -1 -5 -9 -11 -11 -8 -4 -1 1 3 5 5 4 1 -0 -2 -3 -3 -1 0 1 1 1 0 0 1
-2 -2 -2 -2 -2 -2 -2 -2 -2 -2 -2 -2 -3 -3 -3 -3 -3 -3 -2 -2 -2 -1 -1 -1 -1 -1 -2 -2 -3 -4 -4 -4 -4 -4 -4 -3 -3 -3 -2 -3 -3 -3 -3 -4 -4 -5 -7 -8 -7 -7 -9 -8 -8 -9 -10 -8 -9 -10 -10 -10 -10 -10 -8 -6 -5 -5 -4 -2 -1 0 2 3 1 -1 -2 -0 1 1 -2 -5 -9 -11 -11 -8 -4 -1 1 3 4 4 2 -0 -2 -3 -3 -2 -1 0 1 1 1 0 1
-3 -3 -3 -3 -3 -3 -3 -2 -2 -2 -2 -1 -1 -1 -1 -1 -1 -1 -1 -2 -2 -2 -3 -3 -3 -3 -4 -5 -5 -6 -7 -7 -7 -8 -8 -7 -7 -7 -6 -5 -4 -3 -3 -4 -3 -2 -4 -7 -6 -6 -9 -9 -8 -8 -9 -9 -10 -11 -11 -11 -12 -12 -10 -8 -8 -7 -7 -5 -4 -2 1 2 2 1 -1 -2 -1 1 1 -2 -5 -8 -11 -11 -8 -4 -0 2 4 4 3 1 -1 -2 -2 -2 -2 -0 1 1 1 0 0
-3 -3 -4 -4 -4 -3 -3 -2 -2 -1 -1 -0 0 0 0 1 0 0 0 -1 -3 -4 -4 -5 -6 -6 -7 -8 -8 -9 -10 -9 -9 -10 -11 -9 -7 -7 -8 -8 -7 -4 -3 -5 -4 -2 -2 -4 -4 -5 -7 -8 -8 -7 -7 -8 -9 -10 -10 -12 -13 -13 -12 -11 -10 -9 -9 -8 -6 -4 -1 0 1 2 1 -0 -1 -0 1 1 -1 -5 -8 -10 -10 -7 -2 1 3 4 4 2 0 -1 -1 -2 -2 -1 0 1 1 1 0
-3 -3 -4 -4 -3 -3 -2 -2 -2 -1 -2 -1 -0 -0 -1 -0 -1 -1 -1 -2 -3 -5 -6 -7 -8 -8 -8 -9 -10 -11 -12 -11 -10 -9 -11 -12 -10 -7 -5 -8 -9 -7 -4 -5 -5 -4 -3 -3 -3 -4 -5 -6 -7 -7 -5 -6 -8 -9 -9 -11 -12 -13 -13 -12 -11 -11 -10 -9 -8 -6 -4 -2 -0 1 2 2 1 -0 -1 1 1 -1 -4 -7 -9 -9 -5 -1 2 3 3 3 2 0 -1 -1 -1 -2 -1 0 1 1 1
-3 -3 -4 -3 -3 -3 -2 -2 -2 -2 -3 -2 -2 -2 -4 -3 -3 -4 -5 -4 -5 -6 -7 -8 -10 -11 -10 -11 -11 -11 -12 -13 -12 -10 -9 -11 -13 -12 -7 -6 -7 -9 -7 -6 -6 -6 -5 -4 -4 -4 -4 -5 -6 -5 -4 -5 -6 -6 -7 -9 -11 -12 -12 -12 -12 -12 -11 -10 -9 -7 -6 -4 -2 -0 1 2 2 1 -0 -0 1 1 -1 -4 -7 -9 -9 -4 -1 1 1 2 2 1 0 -1 -1 -1 -1 -1 0 1 1
-3 -3 -4 -3 -3 -3 -2 -3 -3 -4 -5 -4 -4 -4 -6 -6 -6 -7 -7 -7 -7 -7 -7 -8 -9 -11 -11 -12 -12 -12 -11 -12 -14 -14 -11 -9 -10 -13 -12 -8 -7 -7 -8 -7 -6 -6 -6 -6 -5 -4 -4 -5 -5 -4 -3 -4 -4 -4 -5 -7 -8 -9 -10 -11 -12 -12 -11 -10 -9 -8 -7 -6 -4 -3 -1 0 1 1 1 -0 -0 0 1 -2 -5 -7 -10 -8 -4 -1 -0 0 2 2 1 0 -0 -1 -1 -1 -1 0 1
-3 -2 -3 -3 -3 -3 -3 -3 -4 -5 -6 -6 -6 -6 -7 -8 -8 -8 -9 -9 -9 -9 -10 -9 -10 -11 -10 -11 -13 -14 -13 -11 -12 -14 -15 -11 -9 -10 -12 -11 -9 -7 -7 -7 -7 -6 -5 -7 -6 -5 -4 -5 -4 -3 -2 -3 -2 -2 -3 -5 -6 -6 -7 -9 -10 -10 -10 -10 -9 -9 -8 -7 -6 -5 -3 -1 -0 1 1 0 -1 -1 -0 -1 -3 -4 -7 -9 -7 -4 -1 0 1 3 3 1 0 -0 -0 -1 -1 -1 0
-3 -2 -3 -3 -3 -4 -5 -4 -4 -5 -6 -7 -7 -6 -7 -9 -9 -8 -9 -10 -10 -10 -11 -11 -12 -12 -12 -11 -11 -13 -14 -12 -11 -12 -14 -13 -11 -9 -9 -11 -10 -9 -6 -8 -7 -6 -5 -7 -6 -6 -6 -5 -4 -3 -2 -2 -0 0 -2 -3 -4 -4 -5 -6 -7 -8 -9 -9 -9 -9 -8 -7 -7 -6 -5 -3 -2 -0 1 1 -0 -1 -1 -1 -1 -2 -3 -7 -8 -7 -2 0 2 3 3 2 2 1 0 -0 -1 -1 -1
-3 -3 -3 -4 -4 -4 -5 -6 -6 -6 -7 -8 -8 -7 -6 -9 -10 -10 -8 -10 -11 -11 -12 -12 -13 -13 -14 -13 -12 -11 -13 -11 -11 -10 -11 -11 -11 -11 -8 -9 -10 -10 -7 -8 -7 -6 -6 -6 -6 -6 -7 -6 -5 -5 -4 -1 0 1 0 -1 -2 -3 -3 -4 -4 -5 -6 -8 -9 -9 -8 -8 -7 -6 -6 -4 -3 -1 0 1 1 1 -0 -1 -0 -1 -2 -4 -6 -7 -4 0 2 3 3 3 2 2 1 1 0 -1 -1
-4 -4 -4 -4 -5 -6 -6 -7 -7 -7 -8 -8 -9 -9 -7 -7 -9 -12 -11 -10 -10 -11 -12 -14 -14 -14 -14 -14 -14 -12 -12 -10 -9 -10 -11 -9 -10 -10 -8 -8 -9 -10 -7 -8 -7 -6 -6 -6 -6 -6 -7 -7 -7 -7 -6 -3 -1 0 1 -0 -1 -2 -2 -3 -3 -3 -4 -6 -7 -8 -9 -8 -7 -6 -5 -5 -3 -1 0 1 2 2 2 1 1 1 -0 -1 -3 -4 -5 -1 2 3 3 3 3 3 2 2 1 0 -1
-4 -4 -5 -5 -6 -6 -7 -8 -8 -8 -9 -8 -9 -11 -11 -7 -7 -9 -12 -13 -12 -10 -10 -11 -13 -14 -14 -14 -14 -14 -14 -11 -8 -8 -11 -9 -9 -10 -9 -8 -9 -9 -7 -8 -7 -6 -6 -7 -7 -6 -6 -8 -9 -9 -7 -6 -4 -1 0 -0 -1 -2 -2 -2 -2 -2 -2 -4 -5 -7 -7 -8 -8 -7 -5 -4 -3 -1 0 1 2 3 4 3 2 2 1 0 0 -1 -4 -3 -0 3 3 3 3 4 3 2 1 1 0
-6 -6 -5 -6 -6 -7 -8 -9 -9 -9 -9 -9 -9 -10 -12 -11 -10 -9 -8 -11 -13 -14 -12 -12 -12 -12 -13 -14 -13 -12 -14 -12 -9 -7 -8 -9 -9 -9 -9 -8 -9 -9 -7 -7 -7 -7 -6 -7 -7 -8 -7 -9 -9 -10 -10 -9 -7 -4 -2 -1 -1 -2 -3 -3 -3 -2 -2 -3 -4 -5 -6 -7 -8 -7 -5 -3 -2 -1 -0 1 3 4 4 4 3 2 1 1 2 2 0 -4 -3 0 3 3 3 4 3 2 1 1 1
-6 -7 -6 -7 -8 -8 -8 -9 -10 -11 -10 -9 -9 -10 -11 -10 -11 -12 -12 -10 -10 -13 -15 -14 -13 -13 -12 -14 -13 -12 -11 -12 -10 -9 -7 -7 -8 -9 -9 -8 -9 -10 -8 -7 -7 -8 -7 -7 -8 -9 -9 -10 -10 -11 -11 -10 -8 -6 -4 -2 -2 -3 -4 -4 -4 -3 -3 -3 -3 -4 -5 -7 -8 -7 -6 -4 -2 -0 1 2 3 3 3 4 4 3 2 2 3 3 4 -1 -4 -3 2 3 3 3 3 3 2 1 1
-5 -6 -7 -7 -8 -9 -9 -9 -10 -11 -11 -10 -9 -10 -12 -11 -10 -11 -14 -13 -12 -10 -11 -13 -13 -12 -10 -12 -13 -14 -11 -10 -10 -9 -9 -6 -6 -8 -10 -8 -8 -9 -9 -8 -8 -8 -8 -8 -9 -10 -10 -10 -11 -12 -11 -10 -9 -7 -4 -3 -2 -2 -4 -5 -5 -5 -4 -4 -3 -3 -4 -5 -6 -7 -6 -4 -2 0 1 2 3 3 3 3 4 4 3 3 4 5 7 3 -2 -4 -0 3 4 3 4 4 3 2 1
-7 -7 -7 -7 -8 -9 -10 -10 -10 -11 -12 -10 -10 -10 -12 -13 -12 -11 -11 -14 -14 -13 -10 -10 -12 -13 -10 -9 -11 -14 -12 -10 -9 -8 -9 -8 -6 -6 -9 -8 -8 -8 -9 -8 -9 -9 -9 -9 -10 -10 -10 -10 -10 -11 -9 -9 -8 -7 -4 -3 -2 -1 -3 -4 -5 -6 -5 -4 -4 -3 -3 -4 -5 -6 -6 -5 -3 -1 1 2 2 2 2 3 4 5 5 4 5 7 8 6 2 -2 -3 1 2 4 5 5 4 2 1
-8 -8 -8 -8 -8 -8 -8 -9 -10 -11 -11 -11 -11 -10 -11 -13 -14 -13 -11 -11 -13 -14 -12 -9 -10 -12 -13 -9 -9 -11 -13 -11 -9 -8 -7 -9 -8 -6 -6 -8 -9 -8 -9 -9 -9 -9 -10 -10 -10 -9 -9 -9 -9 -9 -8 -8 -7 -5 -4 -3 -2 -1 -2 -3 -5 -6 -6 -5 -5 -4 -4 -4 -4 -5 -6 -5 -4 -3 -0 1 2 1 1 2 4 5 6 6 6 6 8 7 5 2 -3 -3 -1 2 5 5 4 3 1
-8 -9 -9 -9 -9 -9 -9 -9 -10 -11 -11 -11 -11 -11 -11 -11 -12 -13 -13 -11 -11 -13 -15 -12 -10 -10 -12 -10 -9 -10 -12 -10 -9 -8 -6 -7 -8 -8 -6 -8 -9 -9 -9 -9 -9 -9 -9 -9 -9 -9 -9 -9 -8 -8 -7 -6 -5 -4 -3 -3 -2 -2 -2 -2 -3 -5 -6 -6 -6 -5 -4 -4 -4 -4 -4 -5 -5 -3 -1 0 1 1 1 2 4 5 6 6 5 5 7 8 7 4 -1 -6 -5 -1 4 3 3 3 1
-8 -9 -9 -9 -10 -10 -10 -9 -9 -10 -11 -12 -12 -12 -12 -11 -10 -11 -13 -13 -11 -10 -12 -12 -11 -10 -11 -10 -9 -9 -11 -10 -8 -7 -6 -5 -6 -8 -8 -8 -9 -9 -9 -9 -9 -9 -8 -8 -8 -8 -8 -8 -8 -7 -6 -4 -3 -3 -4 -3 -3 -2 -2 -2 -2 -3 -5 -6 -6 -5 -4 -3 -2 -2 -3 -4 -4 -4 -3 -2 -1 0 1 1 3 4 5 5 4 5 7 9 8 5 -1 -7 -8 -4 2 2 2 2 1
-9 -9 -9 -9 -9 -9 -10 -10 -10 -10 -11 -12 -12 -12 -11 -14 -12 -10 -9 -13 -12 -10 -9 -10 -10 -9 -9 -11 -11 -10 -9 -10 -8 -6 -6 -6 -6 -6 -8 -9 -9 -9 -9 -9 -8 -8 -8 -7 -7 -7 -8 -8 -8 -7 -5 -3 -2 -3 -4 -3 -3 -3 -2 -2 -1 -2 -3 -4 -5 -5 -4 -3 -2 -1 -2 -2 -3 -4 -4 -4 -2 -1 1 1 3 4 4 4 5 6 7 8 6 3 -3 -7 -8 -5 1 1 1 1 0
-8 -9 -10 -9 -9 -9 -8 -9 -10 -10 -10 -11 -12 -12 -10 -12 -14 -12 -7 -10 -11 -11 -8 -9 -10 -9 -6 -8 -11 -12 -9 -10 -9 -8 -5 -7 -7 -6 -7 -8 -8 -8 -8 -8 -7 -7 -7 -7 -7 -7 -7 -8 -8 -8 -5 -3 -3 -3 -3 -3 -4 -3 -2 -2 -1 -1 -1 -2 -3 -4 -4 -3 -1 -1 -0 -1 -2 -3 -4 -4 -3 -1 1 2 3 4 4 5 6 7 8 7 5 1 -4 -5 -5 -3 -1 1 1 1 -0
-8 -8 -9 -9 -9 -9 -8 -8 -9 -9 -10 -10 -12 -13 -11 -10 -12 -14 -11 -9 -10 -11 -9 -8 -9 -11 -9 -5 -6 -10 -10 -8 -9 -9 -5 -6 -7 -7 -6 -7 -8 -8 -7 -7 -7 -7 -6 -6 -6 -6 -7 -8 -8 -7 -5 -4 -3 -3 -3 -4 -4 -3 -3 -2 -2 -2 -1 -1 -2 -3 -4 -3 -2 -1 -0 -0 -1 -2 -3 -3 -2 -1 1 2 3 3 4 5 6 7 8 8 6 3 -2 -4 -3 -1 -2 -0 1 2 1
-8 -8 -8 -9 -9 -9 -8 -8 -8 -8 -9 -10 -11 -12 -13 -11 -11 -13 -14 -12 -11 -11 -10 -7 -6 -8 -13 -10 -7 -7 -11 -7 -7 -9 -8 -5 -5 -7 -7 -6 -6 -7 -7 -6 -6 -7 -7 -6 -6 -6 -7 -8 -8 -7 -5 -4 -3 -3 -4 -4 -4 -4 -3 -3 -3 -3 -2 -2 -2 -2 -3 -3 -3 -2 -1 0 0 -0 -1 -2 -2 -1 -0 1 2 3 4 5 6 7 8 7 5 2 -2 -2 0 2 2 -0 0 1 1
-9 -8 -8 -8 -9 -9 -8 -8 -8 -8 -8 -9 -10 -11 -13 -13 -12 -11 -12 -12 -12 -11 -10 -10 -8 -6 -7 -12 -11 -10 -11 -8 -7 -7 -9 -6 -4 -5 -6 -6 -6 -6 -6 -6 -6 -6 -7 -6 -6 -6 -7 -8 -8 -7 -6 -4 -3 -3 -4 -4 -4 -4 -4 -4 -4 -4 -3 -3 -2 -2 -2 -3 -3 -2 -1 -0 1 1 1 -0 -1 -1 -1 -0 1 2 3 5 6 6 6 5 3 -0 -2 2 4 6 8 1 -2 -2 -2
-8 -9 -9 -9 -9 -9 -8 -8 -7 -7 -7 -9 -9 -10 -11 -13 -12 -11 -11 -9 -10 -11 -10 -8 -9 -9 -4 -5 -8 -10 -11 -10 -7 -5 -6 -6 -5 -4 -4 -5 -5 -6 -5 -5 -6 -7 -7 -6 -5 -5 -6 -8 -8 -7 -5 -4 -3 -3 -3 -3 -4 -4 -4 -5 -5 -5 -4 -4 -3 -2 -1 -1 -2 -2 -2 -1 0 1 1 1 0 -1 -1 0 2 3 4 5 5 5 5 4 1 -0 1 6 9 11 12 2 -3 -4 -2
-8 -8 -8 -9 -9 -9 -8 -7 -7 -7 -6 -8 -9 -10 -10 -12 -12 -12 -12 -9 -9 -10 -13 -6 -6 -9 -12 -7 -6 -7 -9 -11 -9 -6 -4 -3 -4 -4 -4 -3 -4 -4 -5 -5 -6 -6 -7 -6 -5 -5 -6 -8 -9 -8 -6 -5 -3 -2 -2 -3 -3 -4 -5 -5 -5 -5 -5 -5 -4 -3 -1 -1 -1 -2 -2 -2 -1 0 1 1 1 1 1 2 3 4 4 5 6 5 4 5 3 1 4 6 8 10 13 4 -2 -5 -3
-8 -8 -8 -8 -8 -9 -9 -7 -7 -7 -7 -7 -8 -10 -10 -11 -12 -13 -13 -11 -8 -8 -13 -11 -6 -5 -11 -12 -10 -9 -9 -10 -11 -10 -6 -5 -3 -2 -3 -3 -3 -3 -4 -4 -5 -6 -6 -6 -5 -5 -6 -8 -9 -9 -8 -6 -4 -2 -1 -2 -2 -4 -5 -5 -5 -5 -5 -4 -4 -3 -2 -0 -0 -1 -2 -2 -2 -1 0 1 2 2 3 3 3 3 4 5 5 4 4 5 4 3 5 4 4 5 8 3 -2 -5 -4
-8 -8 -8 -8 -8 -8 -8 -8 -7 -6 -7 -7 -8 -9 -10 -10 -11 -12 -13 -12 -9 -6 -6 -11 -8 -4 -5 -10 -11 -11 -11 -10 -10 -9 -7 -6 -5 -4 -2 -2 -2 -2 -3 -4 -5 -5 -6 -5 -4 -4 -5 -7 -9 -10 -9 -7 -5 -3 -1 -1 -1 -3 -5 -6 -6 -6 -5 -4 -4 -3 -2 -1 -0 -0 -1 -2 -2 -2 -1 1 2 3 3 2 2 2 2 2 1 0 -0 1 1 1 1 1 1 1 1 -3 -5 -6 -5
-8 -8 -8 -8 -8 -8 -8 -7 -7 -6 -6 -7 -8 -9 -10 -10 -10 -10 -11 -12 -11 -8 -2 -6 -6 -4 1 -6 -9 -10 -9 -11 -10 -9 -9 -5 -4 -5 -6 -3 -1 -1 -3 -5 -5 -5 -6 -5 -4 -3 -4 -6 -9 -10 -10 -9 -7 -4 -2 -0 -0 -2 -5 -6 -7 -7 -6 -4 -3 -3 -2 -1 -0 0 -0 -1 -2 -2 -1 0 2 3 3 3 2 2 1 -1 -3 -5 -6 -6 -6 -6 -5 -4 -2 -1 -1 -4 -4 -4 -5
-7 -7 -7 -7 -7 -7 -7 -7 -7 -7 -7 -7 -8 -9 -9 -10 -11 -10 -9 -10 -12 -13 -9 -7 -9 -8 2 1 -4 -9 -8 -10 -10 -10 -10 -10 -5 -1 -3 -5 -3 -1 0 -3 -5 -6 -6 -5 -4 -3 -3 -5 -8 -10 -11 -10 -8 -6 -4 -1 -1 -2 -4 -6 -7 -7 -6 -4 -3 -2 -2 -1 0 0 0 -1 -2 -2 -1 0 2 3 4 4 5 5 4 0 -3 -6 -8 -8 -6 -5 -5 -4 -3 -1 -0 0 0 -0 -2
-7 -6 -6 -6 -6 -6 -7 -6 -6 -6 -7 -7 -8 -8 -8 -8 -9 -10 -10 -8 -9 -11 -13 -9 -10 -13 -12 2 3 -2 -7 -8 -9 -9 -6 -10 -9 -5 3 2 0 -0 1 -0 -3 -5 -6 -5 -5 -4 -3 -4 -7 -9 -10 -10 -9 -7 -5 -3 -2 -2 -3 -6 -7 -7 -5 -4 -3 -2 -1 -0 0 1 1 0 -0 -1 -1 0 1 2 4 5 6 6 5 3 1 -1 -4 -4 -3 -2 -2 -2 -2 -1 1 2 2 2 0
-8 -7 -6 -6 -6 -7 -7 -7 -7 -6 -6 -7 -7 -8 -9 -8 -7 -8 -10 -9 -7 -6 -8 -6 -4 -6 -18 -11 -1 4 -3 -6 -7 -8 -8 -4 -7 -11 -8 0 3 4 4 3 1 -2 -5 -5 -5 -4 -3 -4 -6 -8 -10 -10 -9 -8 -7 -5 -4 -3 -3 -5 -6 -6 -5 -4 -3 -1 -0 0 1 2 2 1 1 0 -0 0 1 2 3 4 5 5 5 3 2 1 1 0 -0 -0 -1 -1 0 1 2 2 1 -0 -0
-6 -7 -8 -7 -7 -6 -7 -8 -8 -8 -7 -7 -6 -7 -8 -9 -9 -8 -8 -11 -10 -8 -7 -11 -5 1 0 -13 -11 -4 -2 -8 -7 -7 -12 -9 -6 -8 -16 -11 -4 2 6 8 6 2 -3 -5 -5 -4 -3 -4 -5 -8 -10 -10 -9 -8 -8 -7 -5 -4 -4 -5 -5 -5 -5 -4 -2 -1 -0 1 2 3 3 3 2 2 1 1 2 3 3 4 5 5 5 4 3 2 2 3 3 4 4 4 4 4 5 4 2 1 1
-5 -5 -6 -7 -7 -7 -6 -7 -7 -8 -7 -8 -8 -7 -6 -7 -9 -10 -8 -11 -13 -13 -10 -12 -13 -8 5 -1 -6 -8 0 -8 -10 -9 -8 -13 -10 -6 -8 -12 -11 -5 1 7 11 11 5 1 -1 -2 -3 -4 -5 -6 -8 -9 -8 -8 -9 -8 -7 -5 -4 -5 -5 -5 -4 -3 -2 -1 -0 1 3 4 4 4 4 3 2 3 3 3 3 5 5 6 6 5 4 3 3 3 4 6 8 9 9 10 10 10 9 9 10
-6 -6 -5 -5 -6 -7 -7 -7 -7 -6 -6 -7 -8 -9 -8 -7 -7 -9 -8 -7 -7 -7 -6 -5 -9 -12 -9 2 1 -3 0 -2 -8 -11 -7 -10 -12 -10 -5 -8 -12 -15 -10 -6 3 11 15 9 6 5 3 -1 -3 -5 -7 -8 -8 -8 -8 -8 -8 -6 -5 -5 -5 -4 -4 -3 -2 -1 -0 1 3 3 4 5 5 4 4 3 3 3 4 4 5 5 6 5 5 4 4 3 3 4 5 7 9 11 12 13 16 18 20
-5 -6 -6 -6 -6 -6 -7 -8 -7 -7 -5 -4 -5 -7 -9 -7 -7 -7 -7 -5 -5 -4 -5 -4 -4 -6 -11 -2 2 1 -5 -1 -3 -7 -9 -9 -11 -15 -16 -9 -9 -12 -14 -13 -11 -5 9 11 11 10 10 4 -0 -4 -6 -7 -7 -8 -8 -8 -8 -7 -6 -5 -4 -4 -4 -3 -2 -1 -0 1 2 3 4 5 5 5 4 4 3 4 4 4 4 4 5 5 5 5 5 4 3 2 1 2 3 5 7 9 12 16 18
-6 -6 -6 -6 -6 -6 -6 -7 -7 -7 -6 -4 -3 -4 -5 -6 -7 -7 -8 -9 -10 -10 -9 -7 -5 -4 -9 -9 -2 4 2 -1 -3 -5 -7 -7 -8 -11 -18 -14 -9 -6 -6 -7 -11 -13 -10 0 6 10 13 7 2 -1 -4 -6 -6 -7 -7 -8 -8 -7 -6 -5 -4 -4 -3 -2 -2 -1 -1 0 1 2 3 4 5 5 4 4 4 4 4 3 3 3 4 4 5 5 5 4 3 2 0 0 1 2 3 3 3 4 6
-7 -7 -6 -6 -6 -7 -6 -6 -6 -6 -6 -6 -5 -5 -5 -5 -5 -6 -7 -8 -9 -8 -8 -9 -8 -7 -7 -12 -10 -3 6 4 1 -3 -7 -8 -6 -5 -10 -14 -15 -15 -13 -10 -8 -9 -12 -11 -4 6 15 10 4 -0 -2 -4 -5 -6 -6 -7 -7 -7 -6 -5 -4 -3 -2 -2 -2 -2 -1 0 1 1 2 4 4 4 4 4 4 4 4 3 3 3 3 4 5 5 5 5 4 2 1 2 3 4 4 4 3 2 1
-6 -7 -7 -6 -6 -7 -7 -7 -6 -6 -5 -5 -6 -6 -6 -6 -5 -4 -2 -2 -2 -3 -4 -8 -10 -9 -4 -5 -9 -10 -5 1 3 3 -1 -7 -8 -7 -6 -9 -12 -15 -18 -18 -15 -11 -9 -9 -10 -6 9 13 8 0 -2 -3 -4 -5 -6 -6 -6 -7 -7 -6 -4 -3 -2 -2 -2 -1 -0 -0 0 1 2 3 3 4 4 5 5 4 4 3 3 4 5 5 6 6 6 5 5 4 3 5 6 8 9 9 8 7 6
-6 -6 -7 -7 -6 -5 -6 -6 -7 -6 -6 -5 -5 -5 -5 -5 -5 -5 -5 -5 -5 -4 -3 -3 -4 -6 -6 -3 -3 -5 -5 -4 -2 -0 3 -0 -4 -7 -6 -6 -6 -6 -9 -12 -15 -15 -14 -10 -11 -11 -6 11 14 8 -2 -3 -4 -4 -4 -5 -5 -6 -6 -5 -4 -3 -2 -2 -1 -1 -0 -0 0 1 2 2 2 3 5 6 5 5 5 4 5 5 6 6 6 6 6 6 6 5 5 6 8 10 11 11 11 11 11
-6 -5 -6 -6 -6 -6 -5 -5 -5 -6 -6 -6 -5 -5 -5 -4 -4 -5 -7 -8 -9 -9 -6 -3 -2 -4 -8 -7 -5 -3 -3 -2 -3 -4 -2 2 1 -2 -5 -4 -5 -5 -6 -8 -10 -13 -16 -17 -15 -14 -14 -3 11 18 10 1 -2 -3 -2 -3 -4 -5 -5 -5 -4 -3 -2 -2 -1 -1 -1 -0 1 1 1 1 3 4 5 6 6 6 6 6 6 6 6 6 6 6 6 6 7 8 8 8 9 9 9 9 9 10 10
-5 -5 -5 -5 -5 -6 -6 -6 -5 -5 -5 -6 -6 -6 -6 -6 -5 -4 -3 -3 -4 -6 -8 -9 -8 -7 -7 -9 -8 -7 -7 -5 -3 -2 -3 -2 0 1 -2 -3 -3 -3 -4 -5 -7 -8 -11 -14 -16 -18 -18 -17 -7 7 19 12 4 -1 -3 -2 -3 -3 -4 -5 -4 -4 -2 -1 -1 -1 -0 0 1 1 1 2 4 5 5 5 6 6 6 6 7 7 7 7 6 5 5 6 7 9 10 10 10 9 7 7 7 6 6
-5 -5 -5 -6 -5 -5 -5 -6 -6 -6 -5 -5 -6 -6 -5 -6 -6 -5 -3 -2 -1 -0 -2 -4 -5 -5 -4 -6 -7 -7 -5 -7 -6 -5 -2 -3 -2 -0 1 -1 -2 -1 -1 -2 -3 -5 -6 -8 -10 -14 -17 -18 -17 -10 4 13 11 5 -0 -2 -3 -2 -2 -4 -4 -4 -2 -2 -1 -1 0 1 1 1 1 3 4 4 4 4 3 3 4 5 6 6 6 5 4 3 4 4 6 7 9 9 9 8 7 7 6 5 5
-5 -4 -4 -5 -6 -5 -5 -5 -5 -5 -5 -5 -5 -5 -4 -4 -5 -6 -6 -6 -5 -3 -1 0 -0 -2 -3 -4 -6 -6 -5 -4 -4 -6 -6 -4 -3 -2 0 0 -1 -1 -1 -1 -2 -2 -4 -5 -6 -8 -11 -14 -16 -15 -11 1 8 9 6 2 -1 -2 -1 -2 -3 -4 -3 -2 -1 -1 0 1 1 2 2 3 3 3 3 1 0 0 2 4 4 4 4 3 2 2 2 3 5 6 7 6 6 6 6 7 7 7 7
Height
5838 5837 5836 5835 5834 5833 5832 5831 5830 5829 5828 5827 5826 5825 5825 5824 5823 5822 5821 5820 5820 5819 5818 5818 5817 5816 5816 5815 5815 5815 5814 5814 5813 5813 5812 5812 5812 5812 5812 5812 5812 5812 5812 5812 5812 5812 5812 5813 5814 5815 5815 5814 5813 5812 5811 5810 5810 5809 5809 5809 5809 5810 5809 5809 5809 5808 5808 5809 5809 5810 5811 5811 5812 5813 5813 5814 5815 5817 5819 5820 5821 5822 5823 5824 5825 5826 5827 5828 5829 5830 5830 5831 5832 5834 5835 5836 5838 5839 5840 5841 5842 5844 5845
5835 5834 5833 5832 5831 5830 5829 5828 5827 5826 5825 5824 5823 5822 5821 5820 5819 5818 5817 5816 5815 5815 5814 5813 5812 5812 5811 5810 5810 5809 5809 5808 5808 5807 5807 5807 5806 5806 5806 5807 5807 5807 5807 5807 5807 5807 5807 5808 5809 5810 5809 5808 5808 5807 5807 5807 5806 5805 5805 5804 5804 5804 5805 5805 5804 5804 5804 5804 5804 5805 5805 5806 5807 5808 5809 5810 5810 5812 5814 5815 5816 5817 5818 5820 5820 5822 5823 5824 5825 5826 5826 5827 5828 5830 5831 5833 5834 5835 5837 5838 5839 5840 5841
5832 5831 5830 5829 5828 5827 5826 5825 5824 5822 5821 5820 5819 5818 5817 5816 5815 5814 5813 5812 5811 5810 5810 5809 5808 5808 5807 5806 5805 5805 5804 5803 5802 5802 5801 5801 5801 5800 5800 5800 5801 5801 5801 5801 5801 5802 5802 5803 5804 5804 5803 5803 5802 5802 5803 5803 5802 5802 5801 5800 5800 5799 5799 5799 5799 5799 5799 5799 5799 5799 5800 5801 5802 5804 5805 5805 5806 5807 5808 5810 5811 5813 5814 5815 5816 5818 5819 5820 5821 5822 5822 5823 5824 5826 5827 5829 5830 5832 5834 5835 5836 5837 5838
5829 5828 5827 5826 5825 5823 5822 5821 5820 5819 5818 5817 5816 5815 5814 5813 5812 5811 5810 5809 5808 5807 5806 5805 5804 5804 5803 5802 5801 5800 5800 5799 5798 5797 5797 5796 5796 5795 5795 5795 5795 5795 5795 5795 5795 5795 5796 5797 5798 5798 5797 5797 5797 5797 5797 5798 5798 5798 5797 5796 5795 5795 5794 5794 5794 5794 5794 5794 5794 5794 5794 5795 5797 5798 5799 5800 5801 5802 5803 5804 5806 5807 5809 5810 5812 5813 5814 5815 5817 5818 5819 5820 5820 5822 5823 5825 5827 5828 5830 5831 5832 5834 5835
5826 5825 5824 5822 5821 5820 5819 5818 5817 5816 5815 5814 5813 5811 5810 5809 5808 5807 5806 5805 5804 5803 5802 5801 5800 5800 5799 5798 5797 5796 5795 5794 5793 5793 5792 5792 5791 5791 5790 5790 5790 5790 5789 5789 5789 5789 5789 5791 5791 5791 5791 5791 5791 5791 5791 5792 5792 5792 5792 5792 5791 5790 5790 5788 5788 5788 5788 5788 5789 5789 5789 5789 5790 5792 5794 5795 5796 5797 5798 5799 5800 5802 5804 5805 5807 5808 5810 5811 5812 5813 5814 5815 5816 5817 5819 5820 5822 5824 5826 5827 5829 5830 5831
5823 5822 5820 5819 5818 5817 5816 5815 5814 5812 5811 5810 5809 5808 5807 5806 5805 5804 5802 5801 5800 5799 5798 5797 5796 5795 5794 5793 5792 5791 5790 5789 5789 5788 5787 5786 5786 5786 5785 5785 5785 5785 5784 5784 5784 5783 5783 5784 5785 5784 5784 5785 5785 5785 5785 5785 5786 5786 5786 5786 5786 5786 5785 5784 5783 5782 5782 5782 5783 5783 5783 5784 5784 5786 5787 5789 5790 5791 5793 5794 5795 5797 5798 5800 5802 5803 5805 5806 5808 5809 5810 5811 5812 5813 5815 5816 5818 5820 5822 5823 5825 5826 5828
5820 5819 5817 5816 5815 5814 5813 5811 5810 5809 5808 5807 5805 5804 5803 5802 5801 5800 5799 5797 5796 5795 5794 5793 5792 5791 5790 5789 5787 5786 5785 5784 5783 5782 5782 5781 5780 5780 5780 5779 5779 5779 5779 5778 5778 5778 5777 5778 5778 5778 5777 5778 5778 5778 5779 5779 5780 5780 5780 5780 5780 5780 5780 5779 5778 5777 5776 5776 5776 5777 5778 5778 5778 5779 5781 5783 5784 5785 5787 5789 5790 5791 5793 5795 5796 5798 5800 5801 5803 5804 5805 5807 5808 5809 5810 5812 5814 5816 5818 5819 5821 5822 5824
5817 5816 5814 5813 5812 5810 5809 5808 5807 5805 5804 5803 5802 5800 5799 5798 5797 5796 5795 5793 5792 5791 5790 5789 5787 5786 5785 5784 5783 5781 5780 5779 5778 5777 5776 5775 5774 5774 5773 5772 5772 5772 5772 5772 5772 5771 5771 5771 5771 5771 5771 5771 5772 5772 5772 5772 5773 5773 5773 5773 5773 5773 5773 5773 5773 5772 5772 5771 5770 5770 5771 5772 5773 5773 5774 5776 5778 5780 5781 5783 5785 5786 5788 5789 5791 5793 5794 5796 5798 5799 5801 5802 5804 5805 5806 5808 5809 5811 5813 5815 5816 5818 5820
5814 5812 5811 5810 5808 5807 5806 5805 5803 5802 5801 5800 5798 5797 5795 5794 5793 5792 5790 5789 5788 5786 5785 5784 5783 5781 5780 5779 5777 5776 5775 5773 5772 5771 5770 5769 5768 5767 5766 5765 5765 5765 5764 5764 5764 5764 5764 5764 5764 5764 5764 5764 5765 5765 5765 5765 5766 5766 5766 5766 5766 5766 5766 5766 5766 5766 5766 5766 5765 5764 5764 5765 5766 5767 5768 5769 5771 5773 5775 5777 5779 5780 5782 5784 5785 5787 5789 5790 5792 5794 5796 5797 5799 5800 5802 5803 5805 5806 5808 5810 5812 5814 5815
5810 5809 5808 5806 5805 5804 5802 5801 5800 5798 5797 5796 5794 5793 5792 5790 5789 5787 5786 5785 5783 5782 5780 5779 5778 5776 5775 5774 5772 5770 5769 5768 5766 5765 5763 5762 5761 5760 5759 5758 5757 5757 5756 5756 5755 5755 5755 5755 5755 5755 5755 5756 5757 5757 5758 5758 5759 5759 5759 5759 5759 5759 5758 5758 5759 5760 5760 5760 5760 5759 5758 5758 5759 5760 5762 5763 5764 5766 5768 5770 5772 5774 5776 5778 5780 5781 5783 5785 5787 5789 5790 5792 5794 5796 5797 5799 5800 5802 5804 5806 5807 5809 5811
5807 5806 5804 5803 5801 5800 5799 5797 5796 5795 5793 5792 5790 5789 5788 5786 5785 5783 5782 5780 5779 5777 5776 5774 5773 5771 5770 5768 5766 5765 5763 5761 5760 5758 5757 5755 5754 5752 5751 5750 5749 5748 5748 5747 5746 5746 5746 5745 5746 5746 5746 5747 5747 5748 5749 5750 5751 5751 5752 5752 5751 5751 5750 5750 5751 5752 5753 5753 5753 5753 5753 5752 5752 5753 5755 5756 5757 5759 5761 5763 5765 5767 5769 5771 5773 5775 5777 5779 5781 5783 5785 5787 5789 5790 5792 5794 5795 5797 5799 5801 5803 5805 5806
5804 5803 5801 5800 5798 5797 5795 5794 5792 5791 5790 5788 5787 5785 5784 5782 5780 5779 5777 5775 5774 5772 5771 5769 5768 5766 5764 5763 5761 5759 5757 5755 5753 5751 5750 5748 5746 5745 5743 5742 5740 5740 5739 5738 5737 5736 5736 5735 5735 5735 5736 5736 5737 5738 5738 5740 5741 5742 5743 5743 5743 5743 5742 5743 5743 5744 5744 5745 5746 5747 5747 5747 5746 5746 5747 5749 5750 5751 5753 5755 5758 5760 5762 5764 5766 5769 5771 5773 5775 5778 5780 5782 5783 5785 5787 5789 5791 5793 5794 5796 5798 5800 5801
5801 5800 5798 5797 5795 5794 5792 5790 5789 5787 5786 5784 5783 5781 5780 5778 5776 5775 5773 5771 5769 5767 5765 5764 5762 5760 5759 5757 5755 5753 5750 5748 5746 5744 5742 5740 5739 5737 5735 5734 5732 5730 5729 5728 5727 5726 5725 5725 5725 5725 5725 5725 5726 5726 5727 5728 5730 5731 5732 5733 5733 5734 5734 5735 5735 5736 5736 5737 5738 5739 5740 5741 5741 5740 5740 5741 5743 5744 5746 5747 5750 5752 5755 5757 5760 5762 5765 5767 5770 5772 5774 5776 5778 5780 5782 5784 5786 5788 5790 5791 5793 5795 5797
5798 5796 5795 5794 5792 5790 5789 5787 5785 5784 5782 5780 5779 5777 5775 5773 5772 5770 5768 5766 5764 5762 5760 5758 5756 5755 5753 5751 5749 5746 5744 5742 5739 5737 5735 5733 5731 5729 5727 5725 5723 5722 5720 5718 5717 5715 5715 5714 5714 5713 5713 5713 5714 5715 5715 5717 5718 5719 5720 5721 5722 5723 5724 5726 5727 5727 5727 5728 5729 5730 5732 5733 5734 5735 5734 5734 5735 5736 5738 5740 5742 5745 5748 5750 5753 5755 5758 5761 5764 5766 5768 5770 5772 5774 5776 5778 5780 5782 5784 5786 5788 5790 5792
5795 5794 5792 5790 5789 5787 5786 5784 5782 5780 5778 5776 5775 5773 5771 5769 5767 5765 5763 5761 5759 5757 5755 5753 5751 5749 5747 5745 5743 5741 5738 5736 5733 5730 5728 5725 5723 5721 5719 5717 5715 5713 5711 5709 5707 5705 5704 5703 5702 5702 5701 5701 5701 5702 5703 5704 5705 5707 5708 5708 5709 5710 5713 5715 5717 5718 5719 5720 5720 5721 5723 5725 5726 5728 5728 5728 5728 5729 5730 5732 5735 5737 5740 5743 5746 5749 5751 5754 5757 5760 5762 5764 5766 5768 5770 5772 5775 5777 5779 5781 5783 5785 5787
5792 5790 5789 5787 5786 5784 5782 5780 5779 5777 5775 5773 5771 5769 5767 5765 5763 5760 5758 5756 5754 5752 5750 5748 5746 5744 5742 5740 5737 5735 5733 5730 5727 5725 5721 5719 5716 5713 5711 5708 5706 5703 5701 5699 5697 5695 5693 5692 5691 5690 5689 5689 5688 5689 5689 5690 5692 5693 5694 5695 5696 5698 5700 5702 5705 5707 5708 5710 5711 5712 5714 5715 5717 5719 5720 5721 5721 5721 5722 5725 5727 5729 5732 5735 5738 5741 5744 5747 5750 5753 5755 5758 5760 5762 5764 5766 5769 5771 5773 5775 5778 5780 5782
5789 5787 5785 5784 5782 5780 5779 5777 5775 5773 5771 5769 5767 5765 5763 5760 5758 5756 5754 5752 5750 5747 5745 5743 5741 5738 5736 5734 5731 5729 5726 5723 5720 5718 5715 5712 5709 5706 5703 5700 5697 5694 5691 5689 5686 5684 5682 5680 5679 5677 5676 5675 5675 5675 5675 5676 5678 5679 5680 5680 5682 5684 5686 5689 5691 5694 5696 5698 5700 5702 5704 5706 5708 5710 5712 5714 5715 5715 5715 5716 5719 5721 5724 5726 5730 5733 5736 5739 5742 5745 5748 5750 5753 5755 5758 5760 5763 5765 5768 5770 5772 5775 5777
5785 5784 5782 5780 5778 5777 5775 5773 5771 5769 5767 5765 5763 5761 5759 5756 5754 5752 5750 5747 5745 5742 5740 5737 5735 5732 5730 5727 5724 5721 5718 5715 5713 5710 5707 5704 5701 5698 5695 5691 5688 5685 5681 5678 5675 5673 5670 5668 5666 5664 5663 5662 5661 5661 5661 5662 5663 5664 5664 5665 5667 5669 5671 5674 5677 5680 5682 5685 5688 5691 5694 5696 5698 5700 5702 5705 5707 5708 5708 5709 5710 5713 5715 5718 5721 5724 5728 5731 5734 5737 5740 5743 5746 5749 5751 5754 5756 5759 5761 5764 5767 5769 5771
5782 5780 5779 5777 5775 5773 5771 5769 5767 5765 5763 5761 5759 5757 5755 5752 5750 5748 5745 5743 5740 5737 5735 5732 5729 5726 5723 5720 5717 5714 5710 5708 5705 5701 5699 5695 5693 5689 5686 5683 5679 5675 5672 5668 5665 5661 5659 5656 5653 5651 5649 5648 5647 5646 5646 5646 5647 5648 5648 5650 5651 5654 5656 5659 5662 5665 5668 5671 5675 5678 5682 5685 5688 5690 5692 5695 5697 5700 5701 5702 5703 5705 5707 5710 5713 5716 5719 5723 5726 5729 5732 5735 5739 5742 5745 5747 5750 5753 5755 5758 5761 5763 5766
5780 5778 5775 5774 5771 5770 5767 5765 5763 5761 5759 5757 5755 5753 5750 5748 5746 5743 5741 5738 5735 5732 5729 5726 5723 5719 5716 5713 5710 5706 5703 5700 5697 5693 5690 5687 5684 5680 5676 5673 5669 5665 5661 5657 5654 5650 5647 5643 5640 5638 5635 5634 5632 5631 5631 5631 5631 5631 5632 5633 5635 5637 5640 5643 5646 5649 5652 5656 5660 5665 5669 5673 5676 5679 5681 5684 5687 5690 5693 5695 5696 5697 5699 5701 5705 5707 5710 5714 5718 5721 5724 5728 5731 5734 5738 5740 5744 5746 5749 5752 5755 5757 5760
5777 5775 5773 5770 5769 5766 5764 5762 5760 5757 5755 5753 5751 5748 5746 5744 5741 5739 5736 5733 5730 5726 5723 5720 5716 5713 5710 5706 5703 5699 5696 5693 5689 5685 5681 5677 5674 5670 5665 5661 5658 5654 5650 5645 5641 5638 5634 5630 5627 5624 5622 5620 5618 5617 5616 5616 5615 5615 5615 5616 5618 5620 5623 5626 5630 5633 5636 5640 5645 5650 5654 5659 5663 5666 5670 5674 5677 5680 5683 5686 5688 5690 5691 5693 5696 5699 5702 5705 5709 5713 5716 5720 5723 5727 5730 5734 5737 5740 5742 5745 5748 5751 5754
5774 5771 5769 5767 5765 5763 5761 5759 5756 5754 5751 5749 5746 5744 5741 5739 5736 5733 5730 5727 5724 5720 5717 5714 5710 5707 5704 5700 5696 5692 5688 5685 5681 5677 5672 5667 5663 5659 5655 5649 5645 5640 5637 5632 5628 5624 5620 5617 5613 5610 5608 5606 5604 5603 5602 5601 5601 5600 5600 5600 5602 5604 5606 5609 5612 5616 5620 5624 5629 5633 5638 5643 5648 5653 5657 5662 5665 5669 5672 5675 5679 5681 5683 5685 5687 5690 5694 5697 5700 5704 5708 5711 5715 5719 5723 5726 5730 5733 5736 5739 5742 5745 5747
5770 5768 5766 5764 5762 5760 5757 5755 5752 5750 5747 5745 5742 5739 5736 5733 5730 5727 5725 5721 5718 5715 5711 5708 5704 5700 5697 5693 5689 5685 5681 5676 5672 5667 5663 5657 5652 5647 5642 5637 5631 5626 5622 5618 5614 5610 5606 5603 5599 5596 5594 5592 5590 5589 5588 5588 5587 5586 5585 5585 5586 5587 5589 5592 5595 5599 5603 5607 5612 5617 5622 5627 5632 5638 5643 5648 5653 5657 5661 5665 5668 5672 5675 5676 5678 5681 5684 5688 5691 5695 5699 5703 5707 5711 5715 5718 5722 5725 5729 5732 5735 5738 5741
5767 5765 5762 5760 5758 5755 5753 5751 5748 5745 5743 5740 5737 5734 5731 5728 5725 5722 5719 5716 5712 5709 5705 5701 5697 5694 5690 5685 5681 5677 5673 5668 5662 5657 5652 5647 5641 5635 5629 5624 5618 5613 5608 5604 5600 5595 5592 5588 5585 5582 5580 5578 5576 5575 5575 5574 5573 5572 5572 5572 5572 5572 5574 5576 5579 5582 5586 5590 5595 5600 5605 5610 5615 5621 5627 5633 5639 5644 5649 5653 5657 5661 5665 5667 5670 5672 5675 5679 5682 5686 5690 5694 5698 5702 5706 5711 5715 5718 5722 5725 5728 5731 5735
5764 5761 5759 5756 5754 5751 5749 5746 5744 5741 5738 5735 5733 5730 5726 5723 5720 5717 5713 5710 5706 5703 5699 5695 5691 5687 5682 5678 5673 5668 5664 5659 5653 5647 5641 5635 5630 5623 5617 5611 5605 5600 5595 5590 5585 5581 5578 5575 5571 5569 5567 5565 5563 5562 5562 5561 5560 5560 5559 5559 5559 5559 5560 5561 5563 5566 5569 5574 5578 5583 5588 5593 5599 5605 5611 5617 5624 5630 5635 5640 5645 5650 5654 5657 5661 5663 5666 5669 5673 5677 5681 5685 5690 5694 5698 5703 5707 5710 5715 5718 5721 5725 5728
5760 5757 5755 5752 5750 5747 5745 5742 5739 5736 5733 5730 5728 5725 5721 5718 5715 5712 5708 5704 5700 5697 5693 5689 5684 5680 5675 5670 5665 5660 5654 5649 5643 5637 5630 5624 5618 5612 5605 5599 5592 5587 5582 5577 5573 5568 5565 5562 5558 5556 5554 5552 5550 5549 5549 5549 5549 5548 5547 5547 5546 5546 5547 5548 5549 5551 5554 5557 5561 5566 5571 5576 5582 5588 5594 5601 5608 5615 5621 5627 5633 5638 5642 5647 5651 5655 5657 5660 5664 5668 5673 5677 5681 5685 5690 5694 5698 5703 5707 5711 5714 5717 5721
5756 5754 5751 5749 5746 5743 5740 5737 5735 5732 5729 5726 5723 5720 5716 5713 5709 5706 5703 5699 5695 5690 5686 5682 5678 5673 5668 5662 5657 5651 5645 5639 5633 5626 5619 5612 5606 5600 5594 5587 5581 5575 5570 5566 5561 5557 5553 5550 5546 5544 5541 5539 5538 5537 5536 5537 5537 5536 5535 5535 5535 5535 5535 5536 5537 5538 5540 5542 5545 5549 5554 5560 5565 5571 5578 5584 5591 5599 5606 5613 5620 5625 5631 5636 5640 5645 5648 5651 5654 5658 5663 5668 5672 5677 5681 5685 5690 5695 5699 5703 5707 5710 5714
5753 5750 5747 5745 5742 5739 5736 5733 5730 5727 5724 5721 5718 5714 5711 5708 5704 5700 5697 5693 5689 5685 5680 5675 5670 5665 5660 5655 5648 5642 5636 5629 5622 5615 5608 5601 5594 5588 5582 5576 5570 5564 5560 5555 5551 5546 5542 5539 5535 5532 5530 5527 5526 5525 5524 5524 5525 5525 5524 5523 5523 5523 5524 5524 5525 5526 5527 5529 5531 5534 5538 5543 5549 5555 5561 5568 5575 5583 5591 5598 5605 5612 5618 5624 5629 5634 5639 5643 5646 5649 5654 5658 5663 5668 5672 5676 5681 5686 5690 5695 5699 5703 5706
5749 5746 5743 5740 5737 5735 5731 5728 5725 5722 5719 5716 5712 5709 5706 5702 5699 5695 5690 5686 5682 5678 5674 5669 5663 5658 5652 5646 5640 5633 5626 5620 5613 5605 5597 5590 5583 5577 5570 5565 5560 5554 5549 5545 5541 5536 5532 5529 5525 5522 5519 5516 5514 5512 5511 5511 5512 5512 5512 5511 5511 5511 5511 5512 5513 5515 5515 5517 5518 5521 5524 5528 5533 5539 5545 5552 5559 5567 5575 5583 5590 5598 5605 5611 5617 5623 5628 5633 5637 5640 5643 5648 5653 5658 5662 5667 5672 5677 5682 5686 5691 5695 5699
5745 5742 5740 5736 5733 5730 5727 5724 5721 5718 5715 5711 5707 5704 5700 5697 5693 5689 5685 5681 5676 5671 5666 5661 5656 5650 5644 5637 5630 5624 5617 5610 5602 5595 5587 5580 5573 5567 5560 5555 5550 5545 5540 5535 5531 5527 5523 5519 5515 5511 5507 5505 5502 5500 5499 5498 5499 5499 5500 5499 5499 5499 5499 5500 5501 5502 5504 5505 5506 5509 5511 5514 5518 5524 5530 5537 5544 5551 5559 5566 5575 5583 5590 5597 5604 5610 5616 5622 5627 5631 5634 5637 5642 5647 5652 5658 5663 5667 5673 5678 5682 5687 5691
5741 5738 5735 5732 5729 5726 5723 5719 5716 5713 5710 5706 5702 5699 5695 5691 5687 5683 5679 5675 5670 5665 5659 5653 5648 5642 5635 5628 5621 5614 5607 5600 5593 5585 5578 5570 5564 5557 5551 5546 5541 5536 5531 5526 5522 5517 5513 5509 5505 5500 5496 5493 5491 5488 5487 5486 5486 5486 5487 5486 5486 5486 5486 5487 5488 5490 5491 5493 5495 5497 5500 5502 5505 5510 5515 5522 5529 5535 5543 5550 5559 5567 5575 5583 5590 5597 5604 5610 5616 5621 5625 5628 5631 5636 5642 5648 5653 5658 5663 5668 5674 5678 5683
5737 5734 5731 5728 5725 5721 5718 5715 5711 5708 5705 5701 5697 5693 5690 5686 5682 5677 5673 5668 5663 5658 5652 5645 5639 5633 5626 5619 5611 5603 5597 5590 5583 5576 5568 5561 5555 5549 5543 5537 5532 5527 5522 5518 5513 5508 5503 5499 5495 5490 5485 5482 5480 5477 5475 5474 5473 5473 5474 5474 5474 5473 5473 5473 5475 5476 5478 5480 5483 5485 5488 5490 5493 5497 5502 5508 5514 5521 5527 5535 5542 5550 5559 5567 5576 5584 5591 5598 5605 5611 5615 5618 5621 5626 5631 5637 5642 5648 5654 5659 5664 5669 5674
5733 5730 5727 5724 5720 5717 5714 5710 5706 5703 5699 5696 5692 5688 5684 5680 5676 5672 5667 5661 5656 5650 5645 5638 5631 5624 5617 5610 5602 5594 5586 5580 5573 5567 5560 5553 5546 5541 5535 5529 5524 5519 5514 5509 5504 5499 5494 5489 5484 5480 5475 5472 5469 5466 5464 5463 5462 5462 5462 5462 5461 5461 5460 5460 5461 5463 5465 5467 5470 5473 5476 5479 5482 5486 5490 5495 5500 5506 5513 5520 5527 5535 5543 5552 5561 5570 5578 5586 5593 5599 5605 5609 5611 5615 5620 5626 5632 5638 5643 5649 5655 5660 5665
5729 5726 5723 5720 5716 5713 5709 5705 5701 5698 5694 5691 5687 5683 5679 5674 5670 5665 5660 5655 5649 5643 5637 5630 5623 5615 5607 5600 5593 5585 5577 5570 5564 5557 5551 5545 5538 5532 5527 5521 5516 5511 5506 5501 5495 5490 5485 5479 5474 5470 5465 5462 5459 5456 5454 5453 5452 5451 5450 5450 5450 5450 5449 5449 5449 5450 5451 5454 5457 5460 5464 5467 5471 5475 5479 5483 5487 5493 5499 5505 5512 5519 5527 5536 5545 5555 5564 5572 5579 5586 5592 5598 5601 5605 5608 5614 5620 5627 5633 5639 5645 5650 5656
5725 5722 5718 5715 5711 5708 5705 5701 5697 5693 5689 5685 5682 5677 5673 5669 5664 5659 5653 5648 5643 5636 5629 5622 5615 5607 5599 5591 5583 5576 5569 5562 5555 5549 5543 5537 5531 5525 5519 5514 5508 5502 5497 5492 5486 5481 5475 5470 5465 5460 5456 5453 5450 5447 5446 5445 5443 5442 5441 5440 5440 5439 5438 5438 5438 5438 5439 5441 5444 5447 5451 5455 5460 5463 5467 5471 5475 5480 5486 5492 5498 5505 5512 5521 5530 5540 5548 5557 5565 5572 5579 5585 5590 5594 5597 5603 5609 5615 5622 5628 5634 5640 5646
5721 5718 5714 5710 5707 5703 5700 5696 5692 5688 5684 5680 5676 5672 5667 5663 5658 5653 5646 5640 5635 5628 5621 5613 5606 5598 5590 5582 5574 5567 5560 5553 5547 5540 5535 5529 5524 5518 5511 5505 5500 5494 5489 5483 5477 5472 5467 5461 5456 5452 5448 5444 5441 5439 5438 5437 5435 5433 5431 5430 5429 5429 5428 5428 5428 5428 5429 5430 5432 5435 5439 5443 5448 5452 5456 5460 5464 5469 5474 5479 5485 5491 5499 5507 5515 5525 5533 5541 5550 5559 5566 5573 5580 5585 5587 5591 5597 5604 5611 5617 5624 5630 5636
5716 5713 5710 5706 5702 5699 5695 5691 5687 5683 5679 5675 5671 5666 5662 5656 5651 5646 5640 5633 5626 5620 5613 5605 5597 5590 5582 5574 5566 5558 5551 5545 5539 5533 5527 5522 5516 5510 5504 5498 5492 5486 5480 5474 5469 5463 5458 5453 5449 5444 5440 5436 5433 5431 5430 5429 5427 5425 5423 5421 5420 5419 5419 5419 5419 5419 5420 5420 5422 5424 5427 5431 5435 5440 5444 5449 5453 5457 5462 5467 5473 5479 5486 5493 5502 5510 5519 5527 5536 5545 5553 5560 5567 5572 5576 5580 5585 5593 5600 5607 5614 5620 5627
5712 5709 5705 5701 5698 5694 5690 5686 5682 5678 5674 5670 5665 5660 5656 5650 5645 5639 5634 5626 5619 5612 5605 5596 5588 5580 5573 5566 5558 5550 5544 5538 5531 5525 5520 5515 5509 5502 5496 5490 5484 5478 5472 5466 5460 5455 5450 5445 5441 5437 5433 5429 5426 5424 5422 5421 5419 5416 5414 5412 5411 5410 5409 5409 5410 5410 5411 5412 5413 5414 5416 5420 5424 5428 5432 5437 5441 5446 5450 5455 5461 5468 5474 5481 5489 5497 5505 5513 5522 5531 5539 5546 5552 5557 5563 5569 5575 5583 5590 5597 5604 5611 5618
5708 5704 5700 5697 5693 5689 5685 5681 5677 5673 5668 5664 5659 5654 5650 5644 5638 5631 5625 5619 5611 5604 5596 5588 5580 5571 5564 5557 5550 5543 5535 5530 5524 5518 5512 5507 5501 5495 5489 5482 5476 5470 5464 5458 5453 5447 5443 5438 5434 5430 5425 5421 5418 5416 5415 5413 5410 5408 5405 5404 5402 5401 5400 5400 5400 5401 5401 5403 5404 5405 5407 5410 5413 5417 5421 5425 5430 5435 5440 5445 5451 5457 5463 5470 5477 5484 5492 5500 5508 5517 5525 5532 5538 5545 5552 5560 5567 5573 5580 5587 5594 5601 5608
5704 5700 5696 5692 5688 5684 5680 5676 5672 5667 5663 5658 5653 5648 5643 5637 5631 5625 5618 5610 5603 5595 5588 5580 5572 5564 5556 5549 5542 5535 5528 5522 5517 5511 5505 5500 5494 5488 5481 5475 5469 5462 5456 5450 5445 5440 5435 5431 5427 5422 5418 5414 5411 5409 5407 5405 5403 5400 5398 5396 5394 5392 5391 5391 5391 5391 5392 5393 5395 5396 5398 5400 5403 5406 5410 5414 5419 5424 5429 5435 5440 5446 5452 5459 5465 5472 5480 5487 5495 5504 5511 5519 5525 5532 5541 5550 5557 5564 5570 5577 5585 5592 5598
5700 5696 5692 5688 5684 5680 5675 5671 5667 5662 5657 5652 5647 5642 5636 5630 5624 5617 5610 5603 5595 5587 5580 5572 5564 5556 5549 5541 5535 5529 5522 5515 5510 5505 5499 5492 5486 5480 5474 5467 5461 5455 5449 5444 5438 5433 5428 5424 5420 5415 5411 5407 5404 5402 5400 5397 5395 5393 5390 5388 5386 5384 5383 5382 5382 5382 5383 5384 5385 5387 5390 5391 5394 5396 5400 5404 5408 5413 5419 5424 5430 5435 5442 5448 5455 5461 5468 5476 5483 5490 5498 5505 5511 5520 5530 5540 5549 5555 5561 5568 5575 5581 5586
5695 5691 5687 5683 5679 5675 5670 5666 5661 5657 5652 5646 5641 5635 5629 5623 5616 5610 5603 5595 5587 5579 5570 5563 5556 5548 5540 5533 5527 5521 5515 5509 5503 5498 5492 5486 5480 5473 5467 5461 5455 5448 5443 5437 5431 5426 5421 5417 5413 5408 5404 5400 5397 5395 5392 5390 5388 5385 5383 5380 5378 5376 5375 5374 5373 5373 5374 5375 5376 5379 5381 5383 5385 5387 5390 5394 5398 5403 5408 5413 5419 5425 5431 5438 5445 5451 5458 5465 5471 5478 5485 5492 5500 5508 5519 5529 5539 5546 5552 5557 5563 5570 5576
5691 5687 5682 5678 5674 5670 5665 5661 5656 5651 5646 5640 5635 5629 5622 5615 5609 5602 5595 5588 5580 5572 5563 5555 5548 5540 5533 5525 5518 5512 5507 5502 5496 5490 5485 5480 5474 5467 5460 5454 5448 5442 5436 5430 5425 5419 5415 5410 5406 5402 5397 5393 5390 5388 5385 5383 5381 5378 5376 5373 5371 5369 5367 5365 5364 5364 5365 5366 5367 5370 5372 5375 5377 5379 5381 5384 5388 5392 5397 5403 5408 5415 5421 5428 5435 5442 5448 5454 5460 5467 5473 5480 5488 5497 5507 5517 5526 5534 5541 5546 5552 5560 5569
5686 5682 5678 5674 5670 5665 5660 5656 5651 5646 5640 5635 5629 5622 5615 5609 5601 5594 5587 5580 5573 5565 5557 5548 5540 5533 5527 5519 5511 5504 5499 5494 5489 5483 5478 5472 5466 5460 5454 5448 5442 5436 5430 5424 5419 5413 5408 5404 5400 5396 5391 5387 5383 5380 5378 5376 5374 5372 5369 5367 5364 5361 5359 5357 5356 5355 5356 5357 5359 5360 5363 5365 5368 5370 5373 5375 5379 5383 5387 5393 5398 5405 5411 5418 5425 5431 5437 5443 5448 5455 5461 5469 5477 5485 5495 5504 5513 5521 5529 5535 5542 5550 5560
5682 5678 5674 5669 5665 5660 5655 5651 5646 5640 5635 5629 5622 5616 5609 5602 5595 5587 5579 5571 5564 5557 5550 5542 5533 5525 5520 5514 5506 5498 5491 5486 5481 5476 5470 5465 5459 5453 5448 5442 5436 5430 5424 5418 5413 5407 5402 5398 5394 5390 5385 5381 5377 5374 5371 5369 5367 5365 5363 5360 5357 5354 5352 5350 5348 5347 5347 5348 5350 5352 5354 5357 5359 5361 5364 5366 5370 5374 5378 5383 5389 5395 5401 5407 5414 5420 5425 5431 5436 5441 5449 5457 5465 5473 5482 5491 5500 5510 5518 5525 5531 5540 5550
5677 5673 5669 5664 5660 5655 5650 5645 5640 5635 5629 5623 5616 5609 5602 5595 5587 5580 5572 5564 5556 5548 5542 5535 5527 5519 5511 5506 5500 5493 5485 5479 5473 5468 5463 5458 5453 5447 5441 5435 5430 5425 5418 5412 5406 5401 5396 5392 5388 5384 5380 5375 5371 5368 5365 5362 5360 5358 5356 5354 5351 5348 5345 5342 5340 5339 5339 5340 5341 5343 5345 5348 5350 5353 5355 5358 5361 5365 5370 5375 5380 5385 5391 5397 5404 5410 5415 5420 5425 5430 5438 5445 5452 5460 5469 5478 5488 5498 5507 5516 5524 5532 5540
5673 5669 5664 5659 5655 5650 5645 5640 5635 5629 5623 5616 5610 5603 5596 5588 5580 5573 5565 5558 5550 5542 5534 5528 5522 5514 5505 5499 5493 5487 5480 5473 5466 5461 5455 5450 5445 5441 5436 5430 5424 5419 5413 5407 5401 5396 5391 5387 5383 5379 5375 5370 5366 5362 5359 5356 5354 5351 5349 5347 5345 5342 5338 5335 5333 5331 5331 5331 5332 5334 5336 5339 5341 5344 5347 5350 5354 5357 5361 5366 5371 5376 5382 5388 5394 5400 5406 5411 5416 5422 5428 5435 5443 5451 5460 5469 5479 5489 5498 5508 5517 5525 5531
5669 5664 5660 5655 5650 5645 5640 5635 5629 5623 5617 5610 5604 5596 5589 5581 5574 5566 5558 5550 5544 5536 5528 5521 5516 5510 5502 5494 5487 5481 5474 5467 5460 5455 5449 5444 5439 5434 5431 5426 5420 5414 5408 5402 5396 5391 5386 5382 5378 5374 5370 5366 5361 5357 5354 5350 5347 5345 5342 5340 5338 5335 5332 5329 5326 5324 5323 5323 5324 5325 5327 5330 5332 5335 5339 5342 5345 5349 5353 5358 5363 5368 5373 5379 5385 5391 5397 5403 5409 5415 5421 5429 5437 5445 5454 5462 5472 5481 5491 5500 5509 5516 5523
5664 5660 5655 5650 5645 5640 5635 5629 5623 5617 5611 5605 5598 5590 5582 5575 5567 5559 5551 5543 5535 5528 5521 5513 5508 5504 5499 5490 5483 5476 5469 5461 5455 5449 5442 5438 5433 5427 5423 5420 5416 5410 5405 5399 5393 5387 5382 5377 5373 5369 5365 5361 5357 5353 5349 5345 5342 5339 5336 5334 5332 5329 5326 5323 5320 5317 5316 5316 5316 5317 5319 5321 5324 5327 5330 5334 5338 5342 5346 5350 5355 5360 5365 5371 5377 5383 5389 5395 5401 5408 5415 5424 5432 5440 5447 5455 5464 5474 5483 5492 5500 5508 5515
5660 5655 5650 5645 5640 5635 5629 5624 5618 5611 5605 5599 5592 5585 5577 5569 5560 5553 5545 5536 5528 5521 5515 5507 5500 5495 5492 5487 5480 5472 5465 5456 5449 5443 5436 5430 5426 5421 5415 5411 5408 5405 5401 5396 5390 5384 5378 5373 5369 5365 5361 5357 5353 5349 5344 5340 5337 5334 5331 5328 5326 5324 5321 5318 5315 5312 5310 5310 5310 5310 5311 5314 5316 5319 5322 5326 5330 5334 5339 5343 5348 5352 5357 5363 5368 5375 5380 5387 5394 5401 5409 5418 5426 5434 5441 5449 5458 5467 5476 5484 5492 5501 5509
5655 5650 5645 5640 5635 5630 5624 5618 5612 5606 5599 5592 5585 5578 5571 5563 5555 5547 5539 5531 5523 5516 5510 5503 5496 5488 5483 5480 5475 5468 5460 5451 5443 5436 5431 5424 5418 5414 5409 5404 5400 5398 5395 5392 5388 5383 5376 5370 5366 5362 5357 5353 5349 5345 5340 5336 5333 5329 5326 5323 5321 5319 5316 5313 5310 5307 5306 5304 5304 5304 5305 5306 5309 5311 5315 5318 5322 5326 5331 5335 5340 5345 5350 5355 5361 5367 5373 5379 5386 5394 5402 5410 5418 5426 5435 5443 5452 5460 5469 5478 5487 5496 5505
5650 5645 5640 5635 5630 5624 5618 5613 5606 5600 5594 5587 5579 5572 5564 5557 5549 5541 5533 5525 5518 5510 5504 5498 5493 5486 5478 5473 5469 5463 5455 5447 5438 5430 5425 5419 5412 5406 5402 5398 5393 5389 5386 5384 5383 5381 5376 5370 5365 5360 5355 5350 5346 5342 5337 5333 5329 5325 5322 5319 5316 5314 5311 5309 5306 5304 5302 5300 5299 5299 5299 5300 5302 5305 5308 5311 5315 5319 5323 5328 5333 5338 5343 5348 5353 5359 5365 5372 5379 5387 5394 5402 5410 5417 5425 5434 5443 5452 5461 5470 5480 5490 5499
5645 5640 5635 5630 5625 5619 5613 5607 5601 5595 5588 5581 5574 5566 5559 5551 5543 5535 5527 5520 5512 5505 5497 5491 5487 5482 5475 5468 5463 5458 5451 5443 5434 5426 5418 5413 5407 5400 5394 5390 5386 5382 5379 5376 5374 5373 5372 5368 5363 5359 5354 5349 5343 5339 5335 5330 5326 5322 5319 5315 5313 5310 5308 5305 5303 5300 5298 5296 5295 5295 5295 5295 5297 5299 5301 5305 5308 5312 5316 5321 5326 5331 5335 5340 5346 5351 5357 5364 5372 5379 5386 5394 5401 5408 5415 5423 5432 5441 5450 5459 5469 5479 5487
5640 5636 5630 5625 5620 5614 5608 5602 5595 5589 5582 5576 5569 5561 5554 5546 5538 5530 5523 5515 5508 5501 5494 5486 5480 5475 5471 5464 5458 5453 5447 5440 5431 5423 5414 5407 5402 5396 5389 5384 5380 5377 5374 5371 5367 5364 5363 5361 5359 5355 5352 5347 5341 5336 5332 5328 5323 5319 5316 5312 5310 5307 5305 5302 5300 5298 5295 5294 5292 5291 5291 5291 5292 5294 5296 5298 5301 5305 5309 5314 5319 5324 5329 5333 5339 5344 5350 5357 5364 5371 5379 5385 5393 5400 5407 5415 5423 5431 5440 5448 5456 5465 5474
5636 5631 5626 5620 5615 5609 5603 5597 5590 5584 5577 5570 5563 5555 5548 5540 5533 5525 5518 5511 5504 5497 5490 5483 5475 5470 5465 5460 5454 5448 5442 5436 5428 5420 5412 5404 5397 5392 5386 5380 5374 5369 5365 5363 5361 5358 5355 5353 5351 5350 5349 5344 5339 5334 5330 5325 5321 5317 5313 5310 5307 5304 5302 5300 5298 5295 5293 5291 5290 5288 5288 5288 5288 5289 5291 5293 5296 5299 5303 5308 5312 5317 5322 5327 5332 5338 5344 5350 5357 5364 5371 5378 5385 5393 5400 5408 5416 5424 5432 5440 5448 5456 5464
5631 5626 5621 5615 5610 5604 5598 5592 5585 5579 5572 5565 5558 5550 5543 5535 5528 5520 5513 5505 5498 5491 5485 5479 5472 5465 5459 5454 5449 5444 5438 5432 5425 5417 5410 5402 5394 5387 5381 5377 5371 5365 5360 5356 5354 5352 5350 5347 5344 5343 5344 5341 5337 5331 5327 5323 5319 5315 5311 5308 5305 5302 5300 5297 5295 5293 5291 5289 5287 5286 5285 5285 5285 5286 5287 5289 5291 5295 5298 5302 5307 5311 5316 5321 5326 5332 5338 5344 5350 5357 5364 5371 5378 5386 5394 5401 5410 5417 5425 5433 5441 5449 5457
5627 5622 5616 5611 5605 5599 5593 5587 5580 5574 5567 5560 5553 5545 5538 5530 5523 5516 5508 5501 5493 5486 5479 5473 5467 5461 5454 5448 5443 5438 5433 5427 5421 5414 5406 5400 5393 5385 5378 5373 5369 5365 5360 5355 5350 5346 5343 5341 5338 5336 5336 5337 5335 5330 5325 5320 5316 5313 5309 5306 5303 5300 5298 5295 5294 5292 5290 5288 5286 5284 5283 5283 5283 5283 5284 5286 5288 5291 5294 5298 5302 5306 5311 5315 5321 5326 5332 5338 5344 5350 5357 5364 5371 5379 5387 5395 5402 5410 5417 5425 5433 5441 5450
5623 5617 5612 5606 5600 5595 5589 5582 5576 5569 5562 5555 5548 5540 5533 5525 5519 5511 5505 5497 5490 5483 5476 5469 5463 5457 5450 5444 5437 5432 5427 5422 5416 5410 5403 5397 5390 5384 5377 5370 5365 5360 5355 5351 5346 5342 5338 5335 5332 5330 5328 5329 5331 5330 5325 5319 5314 5311 5308 5305 5301 5299 5296 5294 5292 5290 5289 5286 5285 5283 5282 5281 5281 5281 5282 5283 5285 5287 5290 5294 5297 5301 5306 5311 5315 5320 5326 5331 5337 5343 5350 5357 5365 5373 5381 5388 5395 5402 5408 5415 5423 5431 5440
5618 5613 5607 5602 5596 5590 5584 5578 5571 5565 5558 5550 5543 5536 5529 5521 5514 5507 5500 5493 5486 5480 5473 5467 5460 5454 5448 5441 5434 5428 5422 5416 5411 5406 5400 5394 5387 5381 5375 5369 5364 5358 5353 5348 5343 5339 5335 5331 5327 5324 5322 5320 5322 5325 5325 5320 5314 5310 5306 5303 5300 5297 5295 5292 5290 5289 5287 5285 5283 5282 5280 5280 5279 5280 5280 5281 5283 5285 5287 5290 5293 5297 5301 5306 5310 5315 5320 5325 5331 5336 5343 5351 5358 5366 5374 5381 5387 5394 5400 5407 5414 5422 5430
5614 5609 5603 5597 5591 5585 5580 5573 5566 5560 5553 5546 5539 5531 5525 5517 5510 5502 5495 5488 5482 5475 5469 5463 5456 5450 5443 5437 5430 5424 5419 5413 5407 5401 5396 5391 5385 5379 5374 5368 5363 5358 5353 5347 5342 5337 5333 5329 5325 5321 5318 5315 5314 5315 5318 5318 5315 5310 5305 5301 5299 5296 5294 5291 5289 5287 5286 5284 5282 5281 5280 5279 5278 5278 5279 5280 5281 5283 5285 5286 5289 5292 5296 5301 5305 5310 5315 5320 5325 5330 5336 5344 5351 5359 5366 5373 5379 5385 5392 5400 5407 5415 5423
5610 5605 5599 5593 5587 5581 5575 5569 5562 5555 5548 5541 5534 5527 5520 5513 5506 5499 5492 5485 5479 5472 5465 5459 5452 5446 5439 5433 5426 5420 5415 5409 5403 5397 5391 5386 5381 5376 5371 5366 5361 5356 5351 5346 5341 5336 5332 5327 5323 5320 5316 5312 5310 5308 5309 5311 5312 5309 5305 5301 5298 5295 5293 5290 5288 5286 5285 5283 5281 5280 5279 5278 5277 5277 5277 5278 5279 5280 5281 5283 5285 5288 5292 5296 5300 5305 5310 5313 5318 5325 5331 5338 5344 5351 5358 5364 5371 5378 5385 5393 5401 5409 5416